Location: Sawyer Lake
(45.2517°N, 88.7550°W)
Time: 01:45:31
(UTC-05:00)

Daily predictions for brighter satellites

Satellite Brightness Start Highest point End
(mag) Time Altitude Azimuth Time Altitude Azimuth Time Altitude Azimuth
Terra 4.2 00:14:41 15° WNW 00:14:41 15° WNW 00:16:34 10° NW
Cosmos 2263 Rocket 3.2 00:09:07 10° NW 00:12:49 38° WNW 00:12:49 38° WNW
Cosmos 2322 Rocket 3.1 00:15:26 44° NW 00:15:26 44° NW 00:20:32 10° NNE
Lacrosse 4 Rocket 4.2 00:30:52 13° NE 00:30:52 13° NE 00:31:27 10° NE
COSMOS 2428 4.2 00:31:05 28° NE 00:31:05 28° NE 00:33:57 10° NE
ATLAS CENTAUR R/B 4.3 00:31:55 65° S 00:33:30 72° SE 00:59:28 10° NE
ATLAS 3B R/B 4.5 00:39:03 21° E 00:39:03 21° E 00:42:41 10° ENE
Cosmos 2278 Rocket 3.3 00:48:32 10° NNW 00:53:14 39° NE 00:53:14 39° NE
COSMOS 2455 4.4 01:07:19 26° ENE 01:07:19 26° ENE 01:10:29 10° NE
Cosmos 1634 Rocket 4.3 01:08:38 63° N 01:08:38 63° N 01:13:52 10° N
SL-16 R/B 4.1 01:08:00 20° WNW 01:09:17 22° NW 01:13:37 10° N
CZ-3A R/B 3.7 01:26:06 72° SE 01:26:06 72° SE 01:30:54 10° ENE
Cosmos 2279 Rocket 4.3 01:29:50 63° NNE 01:29:50 63° NNE 01:34:59 10° N
Cosmos 1844 Rocket 4.0 01:23:21 10° NNW 01:26:19 31° NW 01:26:19 31° NW
Cosmos 2360 Rocket 3.5 01:29:54 32° NW 01:29:54 32° NW 01:34:41 10° N
CZ-2C R/B 3.5 01:30:22 10° N 01:34:28 47° NNW 01:34:28 47° NNW
Cosmos 2266 Rocket 4.3 01:43:09 10° N 01:49:09 64° ENE 01:49:09 64° ENE
Cosmos 2219 Rocket 2.8 01:53:37 53° N 01:53:37 53° N 01:57:56 10° NNE
Cosmos 2333 Rocket 2.7 01:57:45 58° NNE 01:57:45 58° NNE 02:02:21 10° NNE
SL-16 R/B 3.4 02:00:03 35° E 02:00:03 35° E 02:04:12 10° NE
Cosmos 2297 4.2 01:56:31 10° NNW 02:01:22 58° NNE 02:01:22 58° NNE
Cosmos 2237 Rocket 2.6 02:06:52 60° NNE 02:06:52 60° NNE 02:11:31 10° NNE
Lacrosse 4 Rocket 3.7 02:07:13 21° NNW 02:07:13 21° NNW 02:09:46 10° N
Cosmos 1980 4.1 02:10:40 59° N 02:10:40 59° N 02:15:19 10° NNE
COSMOS 2428 4.0 02:13:04 31° NW 02:13:04 31° NW 02:18:02 10° N
SL-08 R/B 4.3 02:19:55 43° NE 02:19:55 43° NE 02:23:31 10° N
Cosmos 2221 4.4 02:25:48 25° NNW 02:25:48 25° NNW 02:27:58 10° N
ATLAS 3B R/B 2.8 02:26:18 75° SW 02:27:04 85° NW 02:34:32 10° NE
Cosmos 1867 4.5 02:29:33 40° E 02:29:33 40° E 02:33:55 10° NE
Resurs 1-4 Rocket 4.2 02:27:22 10° NE 02:30:44 17° E 02:32:23 15° ESE
ATLAS CENTAUR R/B 4.3 02:28:43 10° N 02:31:41 17° NNE 02:34:30 10° ENE
Cosmos 2278 Rocket 3.9 02:32:49 10° NW 02:35:03 22° WNW 02:35:03 22° WNW
CZ-4C R/B 2.8 02:41:23 46° ESE 02:41:23 46° ESE 02:46:42 10° NE
Cosmos 1607 4.0 02:41:28 62° ESE 02:41:29 62° ESE 02:47:34 10° NE
AQUA 4.4 02:39:50 10° NNE 02:43:55 54° ENE 02:43:55 54° ENE
ARIANE 5 R/B 4.0 02:40:20 10° NE 02:44:49 28° E 02:45:54 26° ESE
COSMOS 2455 3.4 02:50:28 46° WNW 02:50:54 47° NW 02:56:43 10° NNE
Cosmos 1151 Rocket 3.6 02:59:59 56° NE 02:59:59 56° NE 03:03:37 10° NNE
Aureole 2 Rocket 4.0 03:02:01 39° N 03:02:01 39° N 03:04:48 10° NNE
Cosmos 2228 Rocket 4.3 03:05:19 35° NW 03:05:19 35° NW 03:08:30 10° N
SL-16 R/B 3.0 03:03:00 22° SE 03:06:56 58° ENE 03:12:59 10° N
BREEZE-M DEB (TANK) 3.4 02:56:26 10° WNW 03:07:21 86° SSW 03:07:29 83° SSE
IRS-1C 4.0 03:04:53 10° NNE 03:10:16 85° ESE 03:10:39 77° S
Timation 1 Rocket 4.5 03:04:47 10° NW 03:09:55 55° W 03:09:55 55° W
USA 238 DEB 3.7 03:11:20 58° SW 03:12:56 87° NW 03:20:03 10° NE
USA 238 3.7 03:11:27 58° SW 03:13:03 87° NW 03:20:10 10° NE
USA 234 3.3 03:06:37 10° NE 03:13:09 68° SE 03:14:35 54° SSW
ERBS 4.3 03:14:53 27° ENE 03:14:53 27° ENE 03:16:47 10° ENE
Exosat Rocket 4.1 03:09:29 10° NNW 03:13:21 45° WNW 03:13:21 45° WNW
S3M 4.0 03:15:52 53° S 03:17:27 82° E 03:23:47 10° N
SeaSat 1 3.7 03:15:06 10° ESE 03:19:41 40° NE 03:24:18 10° NNW
UNK 4.2 03:19:52 42° SE 03:21:11 59° ENE 03:25:44 10° N
Cosmos 1300 3.4 03:22:33 52° ENE 03:22:33 52° ENE 03:25:58 10° NNE
Meteor 2-2 Rocket 4.3 03:23:01 60° WSW 03:23:51 68° WNW 03:29:48 10° N
Cosmos 2369 Rocket 3.2 03:18:44 10° NNW 03:24:08 46° ENE 03:29:32 10° SE
Cosmos 158 Rocket 4.2 03:24:00 51° SSE 03:24:53 59° ESE 03:29:50 10° NNE
CBERS-1 4.1 03:20:33 10° N 03:25:34 58° WNW 03:25:45 57° W
CZ-2D R/B 2.8 03:21:15 10° NNE 03:26:24 49° E 03:28:18 34° SSE
Cosmos 1726 2.7 03:29:41 54° E 03:29:41 54° E 03:33:10 10° NNE
NOSS 3-2 (A) 3.8 03:28:40 42° S 03:30:31 58° ESE 03:37:01 10° NE
Cosmos 1340 Rocket 3.0 03:27:14 10° N 03:30:44 65° N 03:30:44 65° N
Cosmos 1869 Rocket 3.5 03:31:53 10° N 03:36:20 84° E 03:36:55 67° SSE
Cosmos 1271 Rocket 2.8 03:36:55 83° ENE 03:36:55 83° ENE 03:40:52 10° NNE
NOSS 3-3 (A) 4.4 03:29:39 10° NW 03:37:05 86° NE 03:45:00 10° SE
NOSS 3-3 (C) 4.4 03:29:46 10° NW 03:37:11 86° NE 03:45:07 10° SE
Cosmos 2219 Rocket 4.2 03:35:20 13° WNW 03:37:17 16° NW 03:40:36 10° N
NPP 4.2 03:32:34 10° N 03:37:36 42° WNW 03:38:12 40° W
Cosmos 1553 Rocket 3.9 03:37:19 49° SW 03:39:00 71° W 03:45:08 10° N
Cosmos 1745 Rocket 3.9 03:33:55 10° NNW 03:40:15 71° W 03:42:42 39° SSW
Cosmos 2333 Rocket 4.0 03:39:45 16° WNW 03:41:39 19° NW 03:45:41 10° N
Cosmos 1386 Rocket 4.4 03:36:41 10° N 03:43:03 89° W 03:46:47 26° S
SL-16 R/B 3.0 03:41:56 33° W 03:43:07 37° NW 03:48:23 10° NNE
NOSS 3-2 (C) 3.8 03:42:57 36° S 03:45:24 59° ESE 03:51:57 10° NE
ERS-1 4.4 03:40:50 10° N 03:45:47 69° WNW 03:46:43 55° SW
Meteor 1-27 4.2 03:47:53 36° S 03:50:17 79° E 03:55:52 10° NNE
Cosmos 2237 Rocket 4.0 03:48:42 16° WNW 03:50:41 18° NW 03:54:34 10° N
Cosmos 839 Rocket 4.4 03:42:12 10° NW 03:50:48 86° WSW 03:57:34 10° SSE
Coronas F rocket 3.3 03:50:37 10° N 03:51:59 26° N 03:51:59 26° N
Cosmos 1943 Rocket 3.6 03:53:18 10° NNW 03:58:37 39° NE 04:03:53 10° SE
ADEOS 4.1 03:59:32 10° N 04:04:25 42° WNW 04:05:46 35° WSW
UNKNOWN OBJECT B 2.6 04:01:52 10° NNE 04:05:35 79° ESE 04:06:33 47° S
Cosmos 1356 Rocket 3.4 04:03:03 10° NNW 04:07:03 55° W 04:07:25 53° WSW
EO 1 Del DPAF 3.1 04:06:19 49° SSW 04:07:14 70° WSW 04:11:08 10° NNW
IRS-1D 3.6 04:03:17 10° N 04:08:23 60° WNW 04:10:24 36° SW
ARGOS Delta rocket 4.3 04:04:49 10° NNE 04:09:10 51° E 04:12:24 17° S
ERS-2 3.0 04:07:13 10° N 04:10:38 34° WNW 04:10:40 34° WNW
Resurs 1-4 Rocket 2.1 04:05:50 10° N 04:11:04 68° WNW 04:13:28 33° SW
Meteor 1-4 Rocket 3.8 04:11:38 26° NW 04:11:38 26° NW 04:14:08 10° NNW
Cosmos 494 Rocket 4.1 04:08:29 27° S 04:11:23 74° ESE 04:16:39 10° NNE
ATLAS CENTAUR R/B 1.3 04:07:05 10° NW 04:11:31 88° ENE 04:15:31 10° SE
MTI 3.8 04:10:50 42° SSE 04:11:51 88° E 04:15:14 10° NNW
Cosmos 1867 4.5 04:10:13 26° W 04:12:25 37° NW 04:17:32 10° NNE
Cosmos 1302 Rocket 4.1 04:09:16 10° NNW 04:14:33 78° ENE 04:19:46 10° SSE
Abrixas rocket 2.8 04:16:36 37° WNW 04:17:32 51° N 04:20:50 10° ENE
Cosmos 1733 Rocket 3.4 04:13:18 10° N 04:17:39 64° E 04:22:00 10° SSE
ATLAS 3B R/B 4.2 04:13:33 14° W 04:18:49 29° NNW 04:25:05 10° NNE
Cosmos 1707 Rocket 4.0 04:19:11 36° WSW 04:20:25 46° WNW 04:24:45 10° N
ARIANE 5 R/B 3.1 04:19:09 10° N 04:24:03 42° WNW 04:26:14 28° WSW
Meteor 2-3 Rocket 4.0 04:19:30 10° NNW 04:25:02 49° W 04:29:01 19° SSW
Cosmos 1603 4.3 04:22:43 27° WSW 04:25:17 43° WNW 04:30:44 10° NNE
BREEZE-M DEB (TANK) 3.5 04:23:45 17° WNW 04:26:38 72° SSW 04:34:26 10° SE
Iridium 2 3.7 04:23:42 10° NNW 04:27:28 61° W 04:29:14 28° SSW
CZ-4C R/B 3.2 04:26:34 21° W 04:29:41 38° NW 04:35:29 10° NNE
ADEOS II 4.1 04:26:20 10° NE 04:30:44 26° E 04:35:05 10° SSE
ATLAS 5 CENTAUR R/B 2.8 04:27:26 15° S 04:31:04 42° ESE 04:35:59 10° NE
Cosmos 1331 Rocket 4.3 04:26:48 10° NNW 04:31:48 45° WSW 04:36:49 10° S
Okean O Rocket 1.8 04:27:27 10° NNE 04:31:56 73° ESE 04:35:51 13° S
Cosmos 2315 Rocket 3.9 04:27:27 16° SSW 04:32:32 75° W 04:38:50 10° N
Cosmos 1892 2.9 04:32:02 10° NNW 04:35:47 50° W 04:37:56 22° SSW
PSLV R/B 4.2 04:39:06 28° SSW 04:40:04 34° S 04:43:12 10° ESE
CZ-2C R/B 3.5 04:36:41 10° S 04:41:08 73° WSW 04:45:35 10° NNW
Cosmos 1908 Rocket 4.3 04:39:02 10° N 04:43:22 54° ENE 04:47:39 10° SSE
Cosmos 1184 Rocket 2.8 04:42:16 10° NNW 04:45:43 82° W 04:49:08 10° S
MOZ.5/SAFIR/RUBIN 5/SL-8 3.7 04:41:26 10° S 04:46:01 63° W 04:50:38 10° NNW
Sich 1 Rocket 3.8 04:42:20 10° N 04:46:45 73° E 04:51:08 10° SSE
BREEZE-M DEB (TANK) 1.5 04:45:35 23° WNW 04:46:51 76° SSW 04:49:14 10° ESE
IRS-1C Rocket 4.1 04:42:45 10° NNE 04:48:02 80° WNW 04:53:18 10° SSW
PSLV R/B 3.6 04:45:01 10° N 04:48:44 69° WNW 04:51:40 16° SSW
Thor Agena Rocket 3.6 04:44:06 10° SSE 04:49:14 85° ENE 04:54:28 10° NNW
ERBS 3.9 04:48:19 16° WNW 04:50:21 27° NNW 04:53:26 10° NNE
SL-16 R/B 3.5 04:48:06 18° SW 04:50:55 25° W 04:55:56 10° NW
Pageos (A) 2.7 04:53:38 10° N 04:55:56 81° W 04:58:04 10° S
USA 234 3.8 04:49:46 10° NE 04:56:02 49° NNW 05:01:55 12° W
SeaSat 1 3.1 04:52:53 10° S 04:57:16 32° WSW 05:01:40 10° NW
Cosmos 2251 Rocket 4.3 04:54:35 18° WSW 04:57:57 36° WNW 05:02:48 10° N
Cosmos 1943 3.5 04:54:02 17° SW 04:58:15 51° WNW 05:03:46 10° NNE
CZ-4B DEB 4.2 04:54:25 10° NNE 04:59:57 89° W 05:05:25 10° SSW
Cosmos 1703 Rocket 4.4 04:58:29 10° S 05:02:50 54° E 05:07:14 10° NNE
CZ-2D R/B 4.4 05:01:07 10° N 05:05:06 33° WNW 05:08:16 14° SW
Cosmos 1726 4.3 05:04:22 11° W 05:05:13 12° WNW 05:06:35 10° NW
CZ-2D R/B 3.3 05:01:56 10° N 05:06:10 25° WNW 05:09:38 13° WSW
CZ-4B R/B 3.1 05:01:55 10° N 05:07:14 72° WNW 05:12:29 10° SSW
Cosmos 2369 Rocket 3.0 05:03:11 10° NW 05:07:55 29° WSW 05:12:39 10° SSW
Cosmos 2292 Rocket 4.4 05:08:11 10° NW 05:10:04 16° W 05:10:38 15° WSW
Cosmos 1455 3.1 05:08:35 14° SW 05:11:28 32° WNW 05:15:01 10° N
SL-27 R/B 3.0 05:08:01 10° S 05:11:39 63° ESE 05:15:16 10° NNE
Cosmos 1992 Rocket 4.2 05:08:31 10° NNW 05:13:47 81° ENE 05:19:01 10° SSE
SL-08 ROCKET BODY 4.4 05:07:54 10° NNW 05:13:53 73° W 05:19:56 10° S
BREEZE-M DEB (TANK) 4.3 05:15:40 10° WNW 05:19:44 50° NNE 05:28:36 10° E
Meteor PRIRODA 4.4 05:16:35 10° NNE 05:20:18 58° E 05:24:01 10° S
NOSS 3-2 (A) 4.5 05:16:04 10° WSW 05:21:44 37° NW 05:28:03 10° NNE
CZ-4B R/B 3.1 05:19:07 10° N 05:22:33 41° WNW 05:26:02 10° SW
Meteor 1-31 Rocket 4.1 05:22:00 10° NNE 05:25:38 41° E 05:29:15 10° S
PSLV R/B 3.6 05:22:39 10° N 05:27:02 81° WNW 05:31:25 10° SSW
Cosmos 1862 3.5 05:24:31 10° NNW 05:28:23 48° W 05:32:11 10° SSW
Cosmos 1862 Rocket 4.4 05:25:03 10° SW 05:28:56 32° WNW 05:32:54 10° N
Nadezhda 1 Rocket 4.0 05:22:59 10° SSW 05:29:13 78° W 05:35:35 10° N
Okean 2 Rocket 3.3 05:24:43 10° N 05:29:14 81° E 05:33:45 10° S
USA 116 4.3 05:29:44 10° S 05:34:20 65° W 05:39:28 10° NNW
Feng Yun 1-1 Rocket 4.2 05:30:05 10° NNE 05:35:31 90° ESE 05:40:55 10° SSW
NOSS 3-2 (C) 4.5 05:30:56 10° WSW 05:36:43 36° NW 05:43:02 10° NNE
MOS 1 Rocket 4.2 05:34:58 10° NNE 05:39:11 49° E 05:43:19 10° S
Cosmos 1943 Rocket 2.8 05:37:12 10° NW 05:42:18 35° WSW 05:47:22 10° S
